Regional Weather Roundup
Issued by NWS

Home | Current Version | Previous Version | Text Only | Print | Product List | Glossary Off
Versions: 1 2 3 4 5 6 7 8 9 10 11 12 13 14 15 16 17 18 19 20 21 22 23 24 25 26 27 28 29 30 31 32 33 34 35 36 37 38 39 40 41 42 43 44 45 46 47 48 49 50

000
ASUS45 KABQ 201310
RWRNM
WEATHER ROUNDUP FOR NEW MEXICO
NATIONAL WEATHER SERVICE ALBUQUERQUE NM
700 AM MDT SAT SEP 20 2014

NOTE: "FAIR" MEANS FEW OR NO CLOUDS BELOW 12,000 FEET AGL WITH NO
       SIGNIFICANT WEATHER OR OBSTRUCTIONS TO VISION.

      THIS PRODUCT IS RELEASED AS TWO VERSIONS.  ONE VERSION NEAR
      THE TOP OF THE HOUR CONTAINING PRELIMINARY DATA FROM ALBUQUERQUE
      AND OTHER STATIONS.  A FINAL VERSION WITH ADDITIONAL DATA IS
      ISSUED ABOUT 10 MINUTES AFTER THE HOUR.

NMZ501-503-504-510>518-201400-
NORTHWEST PLATEAU/NORTHCENTRAL MOUNTAINS

CITY           SKY/WX    TMP DP  RH WIND       PRES   REMARKS
FARMINGTON     CLEAR     56  43  61 E6        30.14R
LOS ALAMOS     CLEAR     57  54  88 NW3       30.27R
SANTA FE       CLEAR     54  50  86 NE5       30.21R
TAOS           CLEAR     46  43  87 N7        30.29R
ANGEL FIRE     FOG       41  40  93 CALM      30.38R VSB 1/4

$$
NMZ402-403-502-505>509-201400-
WESTCENTRAL MOUNTAINS/SOUTHWEST MOUNTAINS

CITY           SKY/WX    TMP DP  RH WIND       PRES   REMARKS
GALLUP         CLEAR     43  31  62 E5        30.22R
GRANTS         CLEAR     46  39  76 NW6       30.24R
SILVER CITY    PTCLDY    61  59  94 NW7       30.14R

$$
NMZ407-409-411-412-201400-
SOUTHERN DESERTS

CITY           SKY/WX    TMP DP  RH WIND       PRES   REMARKS
LORDSBURG      FAIR      64  63  94 MISG      30.06S
DEMING         CLEAR     63  62  97 SW5       30.06R
LAS CRUCES     MOCLDY    65  63  93 CALM      30.07R
HOLLOMAN AFB   PTCLDY    64  64 100 CALM      30.04R
ALAMOGORDO     PTCLDY    64  63  94 N6        30.05S
T OR C         CLEAR     63  61  93 N5        30.09R

$$
NMZ519>523-201400-
CENTRAL VALLEYS/CENTRAL HIGHLANDS

CITY           SKY/WX    TMP DP  RH WIND       PRES   REMARKS
ALBUQUERQUE    CLEAR     63  56  78 N9        30.15R
DOUBLE EAGLE   PTCLDY    55  54  94 CALM      30.18R
MORIARTY ARPT  CLOUDY    58  56  94 CALM      30.22R
CLINES CORNERS FOG       52  51  97 W6        30.23R VSB 1/4
BELEN          FAIR      57  56  98 CALM      30.14R
SOCORRO        FAIR      60  58  94 CALM      30.11R

$$
NMZ524>526-539-540-201400-
SOUTHCENTRAL MOUNTAINS

CITY           SKY/WX    TMP DP  RH WIND       PRES   REMARKS
RUIDOSO        PTCLDY    55  54  94 W6        30.24R

$$
NMZ527>531-201400-
NORTHEAST HIGHLANDS/NORTHEAST PLAINS

CITY           SKY/WX    TMP DP  RH WIND       PRES   REMARKS
LAS VEGAS      FOG       54  52  93 N6        30.25R VSB 3/4
RATON          CLEAR     53  52  96 NW5       30.20R
CLAYTON        CLEAR     61  57  87 W12       30.09R

$$
NMZ532>537-201400-
EASTCENTRAL PLAINS

CITY           SKY/WX    TMP DP  RH WIND       PRES   REMARKS
TUCUMCARI      MOCLDY    64  58  80 W3        30.08R
CANNON AFB     CLEAR     63 N/A N/A N5        30.09R
CLOVIS AIRPORT   N/A     64  61  88 N5        30.11S

$$
NMZ028-029-538-201400-
SOUTHEAST PLAINS

CITY           SKY/WX    TMP DP  RH WIND       PRES   REMARKS
ROSWELL        CLOUDY    68  66  93 N6        30.04R
CARLSBAD       CLOUDY    70  32  24 N5        30.01R
HOBBS          CLOUDY    68  68 100 CALM      30.04R FOG


$$



USA.gov is the U.S. government's official web portal to all federal, state and local government web resources and services.